Location: Killam
(52.7910°N, 111.8608°W)
Time: 14:59:21
(UTC+00:00)

Injun/Solrad 3 - Pass Details

Date: 19 February 2026
Orbit: 872 x 984 km, 66.8° (Epoch: 7 March)

Event Time Altitude Azimuth Distance (km) Brightness Sun altitude
Rises 04:39:57 0° 313° (NW) 3,582 12.0 -34.9°
Reaches altitude 10° 04:43:15 10° 295° (WNW) 2,655 11.1 -35.4°
Maximum altitude 04:47:15 18° 255° (WSW) 2,140 10.1 -35.9°
Enters shadow 04:49:22 15° 231° (SW) 2,309 10.1 -36.1°
